Location: Bh?mavarapp?du
(16.7041°N, 80.6518°E)
Time: 01:58:21
(UTC+00:00)

Cosmos 2227 Rocket - Pass Details

Date: 21 April 2021
Orbit: 840 x 844 km, 71.0° (Epoch: 08 May)

Event Time Altitude Azimuth Distance (km) Brightness Sun altitude
Rises 13:51:42 0° 172° (S) 3,388 5.1 -14.1°
Reaches altitude 10° 13:54:27 10° 161° (SSE) 2,454 4.3 -14.7°
Maximum altitude 13:59:13 28° 103° (ESE) 1,514 2.9 -15.8°
Drops below altitude 10° 14:03:58 10° 45° (NE) 2,457 4.4 -16.9°
Sets 14:06:43 0° 34° (NE) 3,392 5.2 -17.5°
